Emporia, Virginia, United States (23847)
Lat: 36.69N, Lon: 77.54W
Wx Zone: VAZ087
Local Info
Past Weather Observations for Friday, June 26, 2015

NOTE: This archive is for the closest National Weather Service station to Emporia. Information may differ from the station used for current weather conditions.

Click here for Long-term Archive

Time Weather Temperature Dewpoint Humidity Pressure Winds Precip Visibility
23:55
Partly Cloudy
70°F / 21°C 70°F / 21°C 100% 29.98 in
(1015 mb)
Calm - 10SM
23:35
Partly Cloudy
70°F / 21°C 70°F / 21°C 100% 29.98 in
(1015 mb)
Calm - 10SM
23:15
Clear
72°F / 22°C 70°F / 21°C 94% 30.01 in
(1016 mb)
ENE 3.5 mph
(ENE 6 kph)
- 10SM
22:55
Partly Cloudy
72°F / 22°C 70°F / 21°C 94% 30.01 in
(1016 mb)
NE 4.6 mph
(NE 7 kph)
- 10SM
22:35
Mostly Cloudy
72°F / 22°C 70°F / 21°C 94% 30.01 in
(1016 mb)
ENE 4.6 mph
(ENE 7 kph)
- 10SM
22:15
Mostly Cloudy
72°F / 22°C 70°F / 21°C 94% 30.01 in
(1016 mb)
ENE 5.8 mph
(ENE 9 kph)
- 10SM
21:55
Mostly Cloudy
72°F / 22°C 70°F / 21°C 94% 30.04 in
(1017 mb)
ENE 3.5 mph
(ENE 6 kph)
- 10SM
21:35
Mostly Cloudy
72°F / 22°C 70°F / 21°C 94% 30.04 in
(1017 mb)
Calm - 10SM
21:15
Partly Cloudy
72°F / 22°C 70°F / 21°C 94% 30.04 in
(1017 mb)
Calm - 10SM
20:55
Clear
72°F / 22°C 70°F / 21°C 94% 30.04 in
(1017 mb)
Calm - 10SM
20:35
Clear
72°F / 22°C 70°F / 21°C 94% 30.01 in
(1016 mb)
ENE 3.5 mph
(ENE 6 kph)
- 10SM
20:15
Clear
72°F / 22°C 70°F / 21°C 94% 30.04 in
(1017 mb)
ENE 3.5 mph
(ENE 6 kph)
- 10SM
19:55
Clear
72°F / 22°C 70°F / 21°C 94% 30.01 in
(1016 mb)
NE 3.5 mph
(NE 6 kph)
- 10SM
19:35
Clear
73°F / 23°C 70°F / 21°C 89% 30.01 in
(1016 mb)
N 3.5 mph
(N 6 kph)
- 10SM
19:15
Clear
73°F / 23°C 70°F / 21°C 89% 30.01 in
(1016 mb)
NE 4.6 mph
(NE 7 kph)
- 10SM
18:55
Clear
75°F / 24°C 70°F / 21°C 83% 30.01 in
(1016 mb)
NE 4.6 mph
(NE 7 kph)
- 10SM
18:35
Clear
77°F / 25°C 70°F / 21°C 79% 30.01 in
(1016 mb)
NE 6.9 mph
(NE 11 kph)
- 10SM
18:15
Partly Cloudy
77°F / 25°C 70°F / 21°C 79% 30.01 in
(1016 mb)
NNE 8.1 mph
(NNE 13 kph)
- 10SM
17:55
Partly Cloudy
77°F / 25°C 72°F / 22°C 83% 29.98 in
(1015 mb)
NNE 8.1 mph
(NNE 13 kph)
-
17:35
Partly Cloudy
79°F / 26°C 72°F / 22°C 79% 29.98 in
(1015 mb)
N 5.8 mph
(N 9 kph)
- 10SM
17:15
Partly Cloudy
79°F / 26°C 72°F / 22°C 79% 29.98 in
(1015 mb)
N 6.9 mph
(N 11 kph)
- 10SM
16:55
Clear
79°F / 26°C 72°F / 22°C 79% 29.98 in
(1015 mb)
N 8.1 mph
(N 13 kph)
- 10SM
16:35
Partly Cloudy
79°F / 26°C 72°F / 22°C 79% 29.98 in
(1015 mb)
NNE 4.6 mph
(NNE 7 kph)
-
16:15
Mostly Cloudy
81°F / 27°C 72°F / 22°C 74% 29.98 in
(1015 mb)
N 4.6 mph
(N 7 kph)
- 10SM
15:55
Mostly Cloudy
81°F / 27°C 72°F / 22°C 74% 29.98 in
(1015 mb)
NNW 9.2 mph
(NNW 15 kph)
- 10SM
15:35
Mostly Cloudy
81°F / 27°C 72°F / 22°C 74% 29.98 in
(1015 mb)
NNW 5.8 mph
(NNW 9 kph)
-
15:15
Partly Cloudy
81°F / 27°C 70°F / 21°C 70% 29.98 in
(1015 mb)
Calm - 10SM
14:55
Partly Cloudy
81°F / 27°C 72°F / 22°C 74% 29.98 in
(1015 mb)
Calm - 10SM
14:35
Partly Cloudy
81°F / 27°C 72°F / 22°C 74% 29.98 in
(1015 mb)
NW 3.5 mph
(NW 6 kph)
- 10SM
14:15
Clear
81°F / 27°C 72°F / 22°C 74% 29.98 in
(1015 mb)
WNW 4.6 mph
(WNW 7 kph)
-
13:55
Partly Cloudy
79°F / 26°C 72°F / 22°C 79% 29.98 in
(1015 mb)
NW 4.6 mph
(NW 7 kph)
- 10SM
13:35
Partly Cloudy
79°F / 26°C 72°F / 22°C 79% 29.98 in
(1015 mb)
NNW 3.5 mph
(NNW 6 kph)
- 10SM
13:15
Overcast
79°F / 26°C 72°F / 22°C 79% 29.98 in
(1015 mb)
N 4.6 mph
(N 7 kph)
- 10SM
12:55
Mostly Cloudy
79°F / 26°C 70°F / 21°C 74% 29.98 in
(1015 mb)
NW 5.8 mph
(NW 9 kph)
-
12:35
Mostly Cloudy
77°F / 25°C 70°F / 21°C 79% 30.01 in
(1016 mb)
NW 3.5 mph
(NW 6 kph)
- 10SM
12:15
Overcast
77°F / 25°C 70°F / 21°C 79% 29.98 in
(1015 mb)
Calm - 10SM
11:55
Mostly Cloudy
77°F / 25°C 72°F / 22°C 83% 29.98 in
(1015 mb)
NE 3.5 mph
(NE 6 kph)
- 10SM
11:35
Mostly Cloudy
77°F / 25°C 70°F / 21°C 79% 29.98 in
(1015 mb)
Calm - 10SM
11:15
Partly Cloudy
77°F / 25°C 70°F / 21°C 79% 29.98 in
(1015 mb)
E 6.9 mph
(E 11 kph)
- 10SM
10:55
Partly Cloudy
75°F / 24°C 70°F / 21°C 83% 30.01 in
(1016 mb)
Calm -
10:35
Overcast
73°F / 23°C 70°F / 21°C 89% 30.01 in
(1016 mb)
NE 3.5 mph
(NE 6 kph)
-
10:15
Overcast
Drizzle
73°F / 23°C 70°F / 21°C 89% 30.01 in
(1016 mb)
Calm - 10SM
09:55
Overcast
75°F / 24°C 72°F / 22°C 89% 30.01 in
(1016 mb)
W 8.1 mph
(W 13 kph)
- 10SM
09:35
Mostly Cloudy
77°F / 25°C 72°F / 22°C 83% 30.01 in
(1016 mb)
NW 10.4 mph
(NW 17 kph)
- 10SM
09:15
Mostly Cloudy
75°F / 24°C 72°F / 22°C 89% 30.01 in
(1016 mb)
NW 5.8 mph
(NW 9 kph)
- 10SM
08:55
Overcast
73°F / 23°C 72°F / 22°C 94% 30.01 in
(1016 mb)
SSW 3.5 mph
(SSW 6 kph)
-
08:35
Mostly Cloudy
73°F / 23°C 72°F / 22°C 94% 30.01 in
(1016 mb)
NW 5.8 mph
(NW 9 kph)
- 10SM
08:15
Mostly Cloudy
73°F / 23°C 70°F / 21°C 89% 29.98 in
(1015 mb)
Calm - 10SM
07:55
Partly Cloudy
73°F / 23°C 70°F / 21°C 89% 29.98 in
(1015 mb)
Calm - 10SM
07:35
Partly Cloudy
72°F / 22°C 70°F / 21°C 94% 29.98 in
(1015 mb)
Calm - 10SM
07:15
Partly Cloudy
72°F / 22°C 70°F / 21°C 94% 29.98 in
(1015 mb)
Calm - 10SM
06:55
Mostly Cloudy
72°F / 22°C 70°F / 21°C 94% 29.95 in
(1014 mb)
Calm -
06:35
Overcast
70°F / 21°C 70°F / 21°C 100% 29.95 in
(1014 mb)
Calm - 10SM
06:15
Mostly Cloudy
70°F / 21°C 70°F / 21°C 100% 29.95 in
(1014 mb)
Calm - 10SM
05:55
Partly Cloudy
70°F / 21°C 70°F / 21°C 100% 29.98 in
(1015 mb)
Calm - 7SM
05:35
Clear
70°F / 21°C 70°F / 21°C 100% 29.95 in
(1014 mb)
Calm - 10SM
05:15
Fair
70°F / 21°C 70°F / 21°C 100% 29.95 in
(1014 mb)
Calm -
04:55
Mostly Cloudy
70°F / 21°C 70°F / 21°C 100% 29.95 in
(1014 mb)
SE 3.5 mph
(SE 6 kph)
- 10SM
04:35
Partly Cloudy
70°F / 21°C 70°F / 21°C 100% 29.95 in
(1014 mb)
Calm - 10SM
04:15
Mostly Cloudy
70°F / 21°C 70°F / 21°C 100% 29.92 in
(1013 mb)
Calm - 10SM
03:55
Partly Cloudy
70°F / 21°C 70°F / 21°C 100% 29.92 in
(1013 mb)
SE 3.5 mph
(SE 6 kph)
0.48 in
(12.19 mm)
10SM
03:35
Mostly Cloudy
Thunder Storms
70°F / 21°C 70°F / 21°C 100% 29.92 in
(1013 mb)
Calm 0.47 in
(11.94 mm)
10SM
03:15
Overcast
Thunder Storms
70°F / 21°C 70°F / 21°C 100% 29.95 in
(1014 mb)
SSW 4.6 mph
(SSW 7 kph)
0.44 in
(11.18 mm)
1 1/4SM
02:55
Overcast
Thunder Storms
70°F / 21°C 68°F / 20°C 94% 29.95 in
(1014 mb)
W 6.9 mph
(W 11 kph)
0.05 in
(1.27 mm)
10SM
02:35
Overcast
Thunder Storms
70°F / 21°C 68°F / 20°C 94% 29.92 in
(1013 mb)
ESE 8.1 mph
(ESE 13 kph)
0.05 in
(1.27 mm)
10SM
02:15
Overcast
Thunder Storms
70°F / 21°C 70°F / 21°C 100% 29.92 in
(1013 mb)
NNE 11.5 mph
(NNE 19 kph)
0.01 in
(0.25 mm)
7SM
01:55
Overcast
Thunder Storms
70°F / 21°C 70°F / 21°C 100% 29.92 in
(1013 mb)
NE 6.9 mph
(NE 11 kph)
0.04 in
(1.02 mm)
5SM
01:35
Overcast
70°F / 21°C 70°F / 21°C 100% 29.95 in
(1014 mb)
N 4.6 mph
(N 7 kph)
0.01 in
(0.25 mm)
5SM
01:15
Mostly Cloudy
Thunder Storms
70°F / 21°C 70°F / 21°C 100% 29.95 in
(1014 mb)
NNW 4.6 mph
(NNW 7 kph)
- 10SM
00:55
Mostly Cloudy
Thunder Storms
70°F / 21°C 70°F / 21°C 100% 29.95 in
(1014 mb)
NW 3.5 mph
(NW 6 kph)
0.01 in
(0.25 mm)
10SM
00:35
Mostly Cloudy
Thunder Storms
70°F / 21°C 70°F / 21°C 100% 29.95 in
(1014 mb)
SE 3.5 mph
(SE 6 kph)
0.01 in
(0.25 mm)
10SM
00:15
Overcast
Thunder Storms
70°F / 21°C 70°F / 21°C 100% 29.95 in
(1014 mb)
SSE 8.1 mph
(SSE 13 kph)
- 10SM
Time Weather Temperature Dewpoint Humidity Pressure Winds Precip Visibility


Weather for websites

WeatherForYou.com, LLC is not responsible for any damages or problems caused by this service. Current weather conditions are obtained from the closest station including government and personal stations which may have varying degrees of accuracy. Weather forecasts are derived from the NOAA NDFD. Like all things, this site belongs to Jesus Christ... He just trusts us to maintain it. If you have any questions or comments email webmaster@weatherforyou.com

Copyright © 2015, WeatherForYou.com LLC. All rights reserved.